Time,TemperatureF,DewpointF,PressureIn,WindDirection,WindDirectionDegrees,WindSpeedMPH,WindSpeedGustMPH,Humidity,HourlyPrecipIn,Conditions,Clouds,dailyrainin,SoftwareType,DateUTC
2013-05-24 00:01:00,62.1,58.5,29.86,WSW,248,15.0,25.0,88,0.03,,,0.19,meteohub,2013-05-24 04:01:00,
2013-05-24 00:02:00,62.1,58.5,29.85,WSW,248,16.0,25.0,88,0.03,,,0.19,meteohub,2013-05-24 04:02:00,
2013-05-24 00:03:00,62.1,58.5,29.85,WSW,248,16.0,25.0,88,0.03,,,0.19,meteohub,2013-05-24 04:03:00,
2013-05-24 00:06:00,62.1,58.5,29.85,WSW,248,16.0,25.0,88,0.03,,,0.19,meteohub,2013-05-24 04:06:00,
2013-05-24 00:11:00,62.1,58.5,29.85,WSW,248,16.0,22.0,88,0.03,,,0.19,meteohub,2013-05-24 04:11:00,
2013-05-24 00:17:00,62.1,58.5,29.85,SW,225,14.0,16.0,88,0.03,,,0.19,meteohub,2013-05-24 04:17:00,
2013-05-24 00:22:00,62.1,58.5,29.85,SW,225,21.0,25.0,88,0.00,,,0.19,meteohub,2013-05-24 04:22:00,
2013-05-24 00:27:00,62.1,58.5,29.83,WSW,248,13.0,28.0,88,0.03,,,0.22,meteohub,2013-05-24 04:27:00,
2013-05-24 00:32:00,61.7,58.1,29.83,WSW,248,17.0,28.0,88,0.08,,,0.27,meteohub,2013-05-24 04:32:00,
2013-05-24 00:37:00,61.7,58.1,29.83,South,180,16.0,21.0,88,0.08,,,0.27,meteohub,2013-05-24 04:37:00,
2013-05-24 00:42:00,61.7,58.1,29.83,WSW,248,12.0,20.0,88,0.11,,,0.30,meteohub,2013-05-24 04:42:00,
2013-05-24 00:47:00,61.7,58.5,29.83,South,180,15.0,20.0,89,0.14,,,0.30,meteohub,2013-05-24 04:47:00,
2013-05-24 00:52:00,61.7,58.5,29.83,WSW,248,21.0,21.0,89,0.14,,,0.33,meteohub,2013-05-24 04:52:00,
2013-05-24 00:57:00,61.7,58.5,29.83,SE,135,18.0,21.0,89,0.17,,,0.35,meteohub,2013-05-24 04:57:00,
2013-05-24 01:02:00,61.5,58.3,29.81,SSW,203,14.0,21.0,89,0.17,,,0.35,meteohub,2013-05-24 05:02:00,
2013-05-24 01:07:00,61.5,58.3,29.81,SW,225,15.0,21.0,89,0.17,,,0.35,meteohub,2013-05-24 05:07:00,
2013-05-24 01:12:00,61.5,58.3,29.81,SW,225,16.0,19.0,89,0.17,,,0.35,meteohub,2013-05-24 05:12:00,
2013-05-24 01:17:00,61.3,57.7,29.81,SW,225,11.0,19.0,88,0.17,,,0.35,meteohub,2013-05-24 05:17:00,
2013-05-24 01:22:00,61.2,57.6,29.81,West,270,13.0,16.0,88,0.14,,,0.35,meteohub,2013-05-24 05:22:00,
2013-05-24 01:27:00,61.2,57.6,29.81,South,180,16.0,16.0,88,0.11,,,0.35,meteohub,2013-05-24 05:27:00,
2013-05-24 01:32:00,61.2,57.6,29.81,SW,225,14.0,16.0,88,0.08,,,0.35,meteohub,2013-05-24 05:32:00,
2013-05-24 01:37:00,61.3,58.1,29.81,WSW,248,11.0,16.0,89,0.08,,,0.35,meteohub,2013-05-24 05:37:00,
2013-05-24 01:42:00,61.3,58.1,29.79,SW,225,15.0,16.0,89,0.06,,,0.35,meteohub,2013-05-24 05:42:00,
2013-05-24 01:47:00,61.3,58.1,29.79,SSW,203,14.0,19.0,89,0.05,,,0.38,meteohub,2013-05-24 05:47:00,
2013-05-24 01:52:00,61.5,58.3,29.79,SW,225,16.0,19.0,89,0.02,,,0.38,meteohub,2013-05-24 05:52:00,
2013-05-24 01:57:00,61.5,58.3,29.79,SW,225,19.0,19.0,89,0.02,,,0.38,meteohub,2013-05-24 05:57:00,
2013-05-24 02:02:00,61.9,58.6,29.79,WSW,248,21.0,21.0,89,0.02,,,0.38,meteohub,2013-05-24 06:02:00,
2013-05-24 02:07:00,61.9,58.6,29.77,SW,225,20.0,21.0,89,0.02,,,0.38,meteohub,2013-05-24 06:07:00,
2013-05-24 02:12:00,62.2,59.0,29.77,SW,225,20.0,21.0,89,0.02,,,0.38,meteohub,2013-05-24 06:12:00,
2013-05-24 02:17:00,62.4,59.2,29.77,WSW,248,16.0,21.0,89,0.02,,,0.38,meteohub,2013-05-24 06:17:00,
2013-05-24 02:22:00,62.2,59.0,29.77,WSW,248,17.0,20.0,89,0.02,,,0.38,meteohub,2013-05-24 06:22:00,
2013-05-24 02:27:00,62.2,59.0,29.76,WSW,248,22.0,22.0,89,0.02,,,0.38,meteohub,2013-05-24 06:27:00,
2013-05-24 02:32:00,62.4,59.2,29.76,SW,225,25.0,25.0,89,0.02,,,0.38,meteohub,2013-05-24 06:32:00,
2013-05-24 02:37:00,62.6,59.4,29.76,WSW,248,19.0,25.0,89,0.02,,,0.38,meteohub,2013-05-24 06:37:00,
2013-05-24 02:42:00,62.4,59.2,29.75,SW,225,12.0,25.0,89,0.00,,,0.38,meteohub,2013-05-24 06:42:00,
2013-05-24 02:47:00,62.2,59.0,29.75,SW,225,13.0,25.0,89,0.00,,,0.38,meteohub,2013-05-24 06:47:00,
2013-05-24 02:52:00,62.4,59.2,29.75,WSW,248,18.0,19.0,89,0.00,,,0.38,meteohub,2013-05-24 06:52:00,
2013-05-24 02:57:00,62.2,59.0,29.75,WSW,248,12.0,18.0,89,0.00,,,0.38,meteohub,2013-05-24 06:57:00,
2013-05-24 03:02:00,62.2,59.0,29.75,SW,225,10.0,18.0,89,0.00,,,0.38,meteohub,2013-05-24 07:02:00,
2013-05-24 03:07:00,62.2,59.0,29.73,SW,225,18.0,18.0,89,0.00,,,0.38,meteohub,2013-05-24 07:07:00,
2013-05-24 03:12:00,62.2,59.0,29.73,SW,225,18.0,18.0,89,0.00,,,0.38,meteohub,2013-05-24 07:12:00,
2013-05-24 03:17:00,62.1,58.8,29.73,SW,225,13.0,18.0,89,0.00,,,0.38,meteohub,2013-05-24 07:17:00,
2013-05-24 03:22:00,62.1,58.8,29.73,SW,225,10.0,18.0,89,0.00,,,0.38,meteohub,2013-05-24 07:22:00,
2013-05-24 03:27:00,62.1,58.8,29.71,SW,225,19.0,19.0,89,0.00,,,0.38,meteohub,2013-05-24 07:27:00,
2013-05-24 03:32:00,61.9,58.6,29.71,WSW,248,14.0,19.0,89,0.00,,,0.38,meteohub,2013-05-24 07:32:00,
2013-05-24 03:37:00,62.1,58.8,29.71,WSW,248,16.0,19.0,89,0.00,,,0.38,meteohub,2013-05-24 07:37:00,
2013-05-24 03:42:00,61.7,58.5,29.71,WSW,248,16.0,19.0,89,0.00,,,0.38,meteohub,2013-05-24 07:42:00,
2013-05-24 03:47:00,61.5,58.3,29.71,NNE,23,11.0,16.0,89,0.00,,,0.38,meteohub,2013-05-24 07:47:00,
2013-05-24 03:52:00,61.5,58.3,29.71,SSW,203,13.0,16.0,89,0.06,,,0.43,meteohub,2013-05-24 07:52:00,
2013-05-24 03:57:00,61.5,58.3,29.71,SW,225,12.0,16.0,89,0.08,,,0.46,meteohub,2013-05-24 07:57:00,
2013-05-24 04:02:00,61.5,58.3,29.71,SW,225,16.0,16.0,89,0.08,,,0.46,meteohub,2013-05-24 08:02:00,
2013-05-24 04:07:00,61.3,58.1,29.70,West,270,10.0,16.0,89,0.08,,,0.46,meteohub,2013-05-24 08:07:00,
2013-05-24 04:12:00,61.3,58.1,29.70,WSW,248,11.0,16.0,89,0.08,,,0.46,meteohub,2013-05-24 08:12:00,
2013-05-24 04:17:00,61.3,58.1,29.70,SW,225,12.0,19.0,89,0.08,,,0.46,meteohub,2013-05-24 08:17:00,
2013-05-24 04:22:00,61.5,58.3,29.70,SW,225,19.0,19.0,89,0.08,,,0.46,meteohub,2013-05-24 08:22:00,
2013-05-24 04:27:00,61.3,58.1,29.70,WSW,248,13.0,19.0,89,0.08,,,0.46,meteohub,2013-05-24 08:27:00,
2013-05-24 04:32:00,61.3,58.1,29.70,WSW,248,10.0,19.0,89,0.08,,,0.46,meteohub,2013-05-24 08:32:00,
2013-05-24 04:37:00,61.3,58.1,29.70,SW,225,11.0,19.0,89,0.08,,,0.46,meteohub,2013-05-24 08:37:00,
2013-05-24 04:42:00,61.0,57.7,29.70,West,270,11.0,13.0,89,0.08,,,0.46,meteohub,2013-05-24 08:42:00,
2013-05-24 04:47:00,61.3,58.1,29.71,WSW,248,10.0,12.0,89,0.06,,,0.46,meteohub,2013-05-24 08:47:00,
2013-05-24 04:52:00,61.3,58.5,29.71,NW,315,12.0,12.0,90,0.03,,,0.46,meteohub,2013-05-24 08:52:00,
2013-05-24 04:57:00,61.5,58.6,29.71,WNW,293,13.0,13.0,90,0.00,,,0.46,meteohub,2013-05-24 08:57:00,
2013-05-24 05:02:00,61.7,58.8,29.71,West,270,8.0,13.0,90,0.00,,,0.46,meteohub,2013-05-24 09:02:00,
2013-05-24 05:07:00,61.7,58.8,29.69,West,270,7.0,13.0,90,0.00,,,0.46,meteohub,2013-05-24 09:07:00,
2013-05-24 05:12:00,62.1,59.2,29.69,SW,225,9.0,13.0,90,0.00,,,0.46,meteohub,2013-05-24 09:12:00,
2013-05-24 05:17:00,62.1,59.2,29.69,West,270,11.0,13.0,90,0.00,,,0.46,meteohub,2013-05-24 09:17:00,
2013-05-24 05:22:00,62.1,59.2,29.69,West,270,16.0,16.0,90,0.00,,,0.46,meteohub,2013-05-24 09:22:00,
2013-05-24 05:27:00,62.1,59.2,29.69,WSW,248,11.0,17.0,90,0.00,,,0.46,meteohub,2013-05-24 09:27:00,
2013-05-24 05:32:00,62.1,59.2,29.69,WSW,248,15.0,17.0,90,0.00,,,0.46,meteohub,2013-05-24 09:32:00,
2013-05-24 05:37:00,62.2,59.2,29.69,WSW,248,15.0,17.0,90,0.00,,,0.46,meteohub,2013-05-24 09:37:00,
2013-05-24 05:42:00,62.2,59.2,29.69,West,270,20.0,20.0,90,0.00,,,0.46,meteohub,2013-05-24 09:42:00,
2013-05-24 05:47:00,62.2,59.2,29.70,WSW,248,15.0,20.0,90,0.00,,,0.46,meteohub,2013-05-24 09:47:00,
2013-05-24 05:52:00,62.4,59.4,29.70,SW,225,14.0,20.0,90,0.00,,,0.46,meteohub,2013-05-24 09:52:00,
2013-05-24 05:57:00,62.1,59.2,29.70,WSW,248,13.0,20.0,90,0.00,,,0.46,meteohub,2013-05-24 09:57:00,
2013-05-24 06:02:00,61.9,59.0,29.70,WSW,248,11.0,16.0,90,0.00,,,0.46,meteohub,2013-05-24 10:02:00,
2013-05-24 06:07:00,61.9,59.0,29.70,WSW,248,11.0,14.0,90,0.00,,,0.46,meteohub,2013-05-24 10:07:00,
2013-05-24 06:12:00,62.1,59.2,29.70,WSW,248,11.0,13.0,90,0.00,,,0.46,meteohub,2013-05-24 10:12:00,
2013-05-24 06:17:00,62.2,59.2,29.70,WSW,248,12.0,13.0,90,0.00,,,0.46,meteohub,2013-05-24 10:17:00,
2013-05-24 06:22:00,62.2,59.2,29.70,SW,225,14.0,14.0,90,0.00,,,0.46,meteohub,2013-05-24 10:22:00,
2013-05-24 06:27:00,62.2,59.2,29.71,West,270,17.0,17.0,90,0.00,,,0.46,meteohub,2013-05-24 10:27:00,
2013-05-24 06:32:00,62.2,59.2,29.71,West,270,7.0,15.0,90,0.00,,,0.46,meteohub,2013-05-24 10:32:00,
2013-05-24 06:37:00,62.4,59.2,29.71,West,270,13.0,17.0,89,0.00,,,0.46,meteohub,2013-05-24 10:37:00,
2013-05-24 06:42:00,62.4,59.2,29.71,WSW,248,6.0,17.0,89,0.00,,,0.46,meteohub,2013-05-24 10:42:00,
2013-05-24 06:47:00,62.4,59.2,29.71,West,270,9.0,13.0,89,0.00,,,0.46,meteohub,2013-05-24 10:47:00,
2013-05-24 06:52:00,62.4,59.2,29.71,WSW,248,11.0,13.0,89,0.00,,,0.46,meteohub,2013-05-24 10:52:00,
2013-05-24 06:57:00,62.1,58.8,29.71,WSW,248,10.0,11.0,89,0.00,,,0.46,meteohub,2013-05-24 10:57:00,
2013-05-24 07:02:00,62.1,58.8,29.71,WSW,248,9.0,11.0,89,0.00,,,0.46,meteohub,2013-05-24 11:02:00,
2013-05-24 07:07:00,62.1,58.8,29.71,West,270,10.0,14.0,89,0.00,,,0.46,meteohub,2013-05-24 11:07:00,
2013-05-24 07:12:00,62.1,58.8,29.71,West,270,13.0,14.0,89,0.00,,,0.46,meteohub,2013-05-24 11:12:00,
2013-05-24 07:17:00,62.1,58.8,29.71,WNW,293,11.0,14.0,89,0.00,,,0.46,meteohub,2013-05-24 11:17:00,
2013-05-24 07:22:00,62.1,58.8,29.71,West,270,15.0,15.0,89,0.00,,,0.46,meteohub,2013-05-24 11:22:00,
2013-05-24 07:27:00,62.1,58.8,29.73,NE,45,14.0,15.0,89,0.00,,,0.46,meteohub,2013-05-24 11:27:00,
2013-05-24 07:32:00,62.1,58.8,29.73,WNW,293,14.0,15.0,89,0.00,,,0.46,meteohub,2013-05-24 11:32:00,
2013-05-24 07:37:00,61.9,58.6,29.73,NW,315,8.0,16.0,89,0.00,,,0.46,meteohub,2013-05-24 11:37:00,
2013-05-24 07:42:00,61.9,58.6,29.73,NW,315,14.0,16.0,89,0.00,,,0.46,meteohub,2013-05-24 11:42:00,
2013-05-24 07:47:00,61.9,58.6,29.74,WNW,293,11.0,16.0,89,0.00,,,0.46,meteohub,2013-05-24 11:47:00,
2013-05-24 07:52:00,62.1,58.8,29.74,WNW,293,9.0,15.0,89,0.00,,,0.46,meteohub,2013-05-24 11:52:00,
2013-05-24 07:57:00,62.1,58.8,29.74,WNW,293,7.0,15.0,89,0.00,,,0.46,meteohub,2013-05-24 11:57:00,
2013-05-24 08:02:00,62.1,58.8,29.74,WNW,293,7.0,12.0,89,0.00,,,0.46,meteohub,2013-05-24 12:02:00,
2013-05-24 08:07:00,62.4,59.2,29.74,NW,315,9.0,12.0,89,0.00,,,0.46,meteohub,2013-05-24 12:07:00,
2013-05-24 08:12:00,62.2,59.0,29.74,NW,315,9.0,9.0,89,0.00,,,0.46,meteohub,2013-05-24 12:12:00,
2013-05-24 08:17:00,62.1,58.8,29.74,WNW,293,7.0,9.0,89,0.00,,,0.46,meteohub,2013-05-24 12:17:00,
2013-05-24 08:22:00,61.9,58.6,29.74,WNW,293,4.0,9.0,89,0.00,,,0.46,meteohub,2013-05-24 12:22:00,
2013-05-24 08:27:00,61.5,58.3,29.76,West,270,6.0,9.0,89,0.00,,,0.46,meteohub,2013-05-24 12:27:00,
2013-05-24 08:32:00,61.5,58.3,29.76,West,270,6.0,8.0,89,0.00,,,0.46,meteohub,2013-05-24 12:32:00,
2013-05-24 08:37:00,61.5,58.3,29.76,NW,315,4.0,8.0,89,0.00,,,0.46,meteohub,2013-05-24 12:37:00,
2013-05-24 08:42:00,61.7,58.5,29.76,NW,315,6.0,8.0,89,0.00,,,0.46,meteohub,2013-05-24 12:42:00,
2013-05-24 08:47:00,62.1,58.8,29.76,West,270,7.0,7.0,89,0.00,,,0.46,meteohub,2013-05-24 12:47:00,
2013-05-24 08:52:00,62.1,58.8,29.76,NW,315,7.0,7.0,89,0.00,,,0.46,meteohub,2013-05-24 12:52:00,
2013-05-24 08:57:00,62.1,58.8,29.76,WNW,293,6.0,7.0,89,0.00,,,0.46,meteohub,2013-05-24 12:57:00,
2013-05-24 09:02:00,62.2,59.0,29.76,NW,315,8.0,8.0,89,0.00,,,0.46,meteohub,2013-05-24 13:02:00,
2013-05-24 09:07:00,62.2,59.0,29.76,WNW,293,7.0,8.0,89,0.00,,,0.46,meteohub,2013-05-24 13:07:00,
2013-05-24 09:12:00,62.4,59.2,29.76,WNW,293,7.0,8.0,89,0.03,,,0.49,meteohub,2013-05-24 13:12:00,
2013-05-24 09:17:00,63.0,59.7,29.76,NNW,338,7.0,10.0,89,0.03,,,0.49,meteohub,2013-05-24 13:17:00,
2013-05-24 09:22:00,63.1,59.9,29.77,NW,315,9.0,10.0,89,0.03,,,0.49,meteohub,2013-05-24 13:22:00,
2013-05-24 09:27:00,63.1,59.9,29.77,NW,315,11.0,11.0,89,0.03,,,0.49,meteohub,2013-05-24 13:27:00,
2013-05-24 09:32:00,63.3,60.1,29.77,WNW,293,9.0,11.0,89,0.03,,,0.49,meteohub,2013-05-24 13:32:00,
2013-05-24 09:37:00,63.3,60.1,29.77,West,270,10.0,11.0,89,0.03,,,0.49,meteohub,2013-05-24 13:37:00,
2013-05-24 09:42:00,63.3,59.7,29.77,WNW,293,8.0,11.0,88,0.03,,,0.49,meteohub,2013-05-24 13:42:00,
2013-05-24 09:47:00,63.5,59.9,29.76,West,270,7.0,10.0,88,0.03,,,0.49,meteohub,2013-05-24 13:47:00,
2013-05-24 09:52:00,63.3,59.7,29.76,WSW,248,7.0,10.0,88,0.03,,,0.49,meteohub,2013-05-24 13:52:00,
2013-05-24 09:57:00,63.5,59.9,29.76,West,270,8.0,9.0,88,0.03,,,0.49,meteohub,2013-05-24 13:57:00,
2013-05-24 10:02:00,63.1,59.5,29.76,West,270,8.0,9.0,88,0.03,,,0.49,meteohub,2013-05-24 14:02:00,
2013-05-24 10:07:00,63.5,59.9,29.76,WNW,293,4.0,9.0,88,0.00,,,0.49,meteohub,2013-05-24 14:07:00,
2013-05-24 10:12:00,63.7,60.1,29.76,SW,225,5.0,8.0,88,0.00,,,0.49,meteohub,2013-05-24 14:12:00,
2013-05-24 10:17:00,63.9,60.3,29.76,WSW,248,6.0,8.0,88,0.00,,,0.49,meteohub,2013-05-24 14:17:00,
2013-05-24 10:22:00,63.7,60.1,29.76,SW,225,7.0,7.0,88,0.00,,,0.49,meteohub,2013-05-24 14:22:00,
2013-05-24 10:27:00,63.5,59.9,29.76,SE,135,6.0,7.0,88,0.00,,,0.49,meteohub,2013-05-24 14:27:00,
2013-05-24 10:32:00,63.3,59.4,29.76,SW,225,6.0,7.0,87,0.00,,,0.49,meteohub,2013-05-24 14:32:00,
2013-05-24 10:37:00,63.5,59.5,29.76,SW,225,6.0,7.0,87,0.00,,,0.49,meteohub,2013-05-24 14:37:00,
2013-05-24 10:42:00,63.3,59.4,29.76,WSW,248,4.0,6.0,87,0.00,,,0.49,meteohub,2013-05-24 14:42:00,
2013-05-24 10:47:00,63.3,59.4,29.76,SW,225,3.0,6.0,87,0.00,,,0.49,meteohub,2013-05-24 14:47:00,
2013-05-24 10:52:00,63.7,59.7,29.76,SW,225,4.0,6.0,87,0.00,,,0.49,meteohub,2013-05-24 14:52:00,
2013-05-24 10:57:00,63.9,59.9,29.76,SW,225,3.0,4.0,87,0.00,,,0.49,meteohub,2013-05-24 14:57:00,
2013-05-24 11:02:00,63.7,59.7,29.76,SW,225,3.0,4.0,87,0.00,,,0.49,meteohub,2013-05-24 15:02:00,
2013-05-24 11:07:00,64.2,60.3,29.76,SW,225,4.0,4.0,87,0.00,,,0.49,meteohub,2013-05-24 15:07:00,
2013-05-24 11:12:00,64.4,60.4,29.76,SSW,203,3.0,4.0,87,0.00,,,0.49,meteohub,2013-05-24 15:12:00,
2013-05-24 11:17:00,64.6,60.6,29.76,SW,225,4.0,4.0,87,0.00,,,0.49,meteohub,2013-05-24 15:17:00,
2013-05-24 11:22:00,65.1,61.2,29.77,WSW,248,5.0,5.0,87,0.00,,,0.49,meteohub,2013-05-24 15:22:00,
2013-05-24 11:27:00,65.1,61.2,29.77,West,270,4.0,7.0,87,0.00,,,0.49,meteohub,2013-05-24 15:27:00,
2013-05-24 11:32:00,64.9,61.0,29.77,West,270,5.0,7.0,87,0.00,,,0.49,meteohub,2013-05-24 15:32:00,
2013-05-24 11:37:00,64.9,60.6,29.77,West,270,6.0,7.0,86,0.00,,,0.49,meteohub,2013-05-24 15:37:00,
2013-05-24 11:42:00,64.9,60.6,29.77,WNW,293,6.0,6.0,86,0.00,,,0.49,meteohub,2013-05-24 15:42:00,
2013-05-24 11:47:00,64.8,60.4,29.77,West,270,5.0,6.0,86,0.00,,,0.49,meteohub,2013-05-24 15:47:00,
2013-05-24 11:52:00,64.8,60.4,29.77,NW,315,7.0,7.0,86,0.00,,,0.49,meteohub,2013-05-24 15:52:00,
2013-05-24 11:57:00,65.3,61.0,29.77,West,270,8.0,8.0,86,0.00,,,0.49,meteohub,2013-05-24 15:57:00,
2013-05-24 12:02:00,65.7,61.3,29.75,West,270,6.0,8.0,86,0.00,,,0.49,meteohub,2013-05-24 16:02:00,
2013-05-24 12:07:00,65.7,61.3,29.75,West,270,6.0,8.0,86,0.00,,,0.49,meteohub,2013-05-24 16:07:00,
2013-05-24 12:12:00,67.3,63.0,29.75,WSW,248,6.0,8.0,86,0.00,,,0.49,meteohub,2013-05-24 16:12:00,
2013-05-24 12:17:00,68.0,63.7,29.75,SSW,203,4.0,6.0,86,0.00,,,0.49,meteohub,2013-05-24 16:17:00,
2013-05-24 12:22:00,68.7,64.4,29.75,SW,225,4.0,6.0,86,0.00,,,0.49,meteohub,2013-05-24 16:22:00,
2013-05-24 12:27:00,69.3,64.9,29.76,NW,315,5.0,6.0,86,0.00,,,0.49,meteohub,2013-05-24 16:27:00,
2013-05-24 12:32:00,69.4,64.8,29.76,NW,315,5.0,6.0,85,0.00,,,0.49,meteohub,2013-05-24 16:32:00,
2013-05-24 12:37:00,70.2,65.1,29.76,WNW,293,10.0,10.0,84,0.00,,,0.49,meteohub,2013-05-24 16:37:00,
2013-05-24 12:42:00,69.4,64.0,29.76,NW,315,5.0,10.0,83,0.00,,,0.49,meteohub,2013-05-24 16:42:00,
2013-05-24 12:47:00,70.0,64.6,29.75,SW,225,4.0,10.0,83,0.00,,,0.49,meteohub,2013-05-24 16:47:00,
2013-05-24 12:52:00,70.2,64.8,29.75,West,270,9.0,10.0,83,0.00,,,0.49,meteohub,2013-05-24 16:52:00,
2013-05-24 12:57:00,69.8,64.4,29.75,NW,315,11.0,11.0,83,0.00,,,0.49,meteohub,2013-05-24 16:57:00,
2013-05-24 13:02:00,70.0,64.6,29.75,WSW,248,7.0,11.0,83,0.00,,,0.49,meteohub,2013-05-24 17:02:00,
2013-05-24 13:07:00,70.3,64.9,29.75,SW,225,4.0,11.0,83,0.00,,,0.49,meteohub,2013-05-24 17:07:00,
2013-05-24 13:12:00,71.1,65.7,29.75,SW,225,6.0,11.0,83,0.00,,,0.49,meteohub,2013-05-24 17:12:00,
2013-05-24 13:17:00,71.8,66.0,29.75,SW,225,6.0,7.0,82,0.00,,,0.49,meteohub,2013-05-24 17:17:00,
2013-05-24 13:22:00,71.8,65.7,29.75,SW,225,5.0,6.0,81,0.00,,,0.49,meteohub,2013-05-24 17:22:00,
2013-05-24 13:27:00,72.1,66.0,29.75,SW,225,5.0,7.0,81,0.00,,,0.49,meteohub,2013-05-24 17:27:00,
2013-05-24 13:32:00,72.5,66.4,29.75,SW,225,6.0,7.0,81,0.00,,,0.49,meteohub,2013-05-24 17:32:00,
2013-05-24 13:37:00,72.9,66.4,29.75,SW,225,5.0,6.0,80,0.00,,,0.49,meteohub,2013-05-24 17:37:00,
2013-05-24 13:42:00,72.9,66.4,29.75,WSW,248,5.0,6.0,80,0.00,,,0.49,meteohub,2013-05-24 17:42:00,
2013-05-24 13:47:00,72.7,66.2,29.75,WSW,248,7.0,7.0,80,0.00,,,0.49,meteohub,2013-05-24 17:47:00,
2013-05-24 13:52:00,72.7,65.8,29.75,SW,225,9.0,9.0,79,0.00,,,0.49,meteohub,2013-05-24 17:52:00,
2013-05-24 13:57:00,72.9,66.0,29.75,WSW,248,10.0,10.0,79,0.00,,,0.49,meteohub,2013-05-24 17:57:00,
2013-05-24 14:02:00,72.3,65.1,29.75,WSW,248,8.0,10.0,78,0.00,,,0.49,meteohub,2013-05-24 18:02:00,
2013-05-24 14:07:00,71.4,64.2,29.75,West,270,5.0,10.0,78,0.00,,,0.49,meteohub,2013-05-24 18:07:00,
2013-05-24 14:12:00,71.4,64.6,29.75,West,270,4.0,10.0,79,0.00,,,0.49,meteohub,2013-05-24 18:12:00,
2013-05-24 14:17:00,71.8,64.9,29.75,SW,225,4.0,8.0,79,0.00,,,0.49,meteohub,2013-05-24 18:17:00,
2013-05-24 14:22:00,72.3,65.8,29.75,WSW,248,5.0,6.0,80,0.00,,,0.49,meteohub,2013-05-24 18:22:00,
2013-05-24 14:27:00,73.0,66.2,29.74,WSW,248,8.0,8.0,79,0.00,,,0.49,meteohub,2013-05-24 18:27:00,
2013-05-24 14:32:00,73.6,66.4,29.74,WSW,248,8.0,8.0,78,0.00,,,0.49,meteohub,2013-05-24 18:32:00,
2013-05-24 14:37:00,73.6,66.4,29.74,SW,225,7.0,8.0,78,0.00,,,0.49,meteohub,2013-05-24 18:37:00,
2013-05-24 14:42:00,73.8,66.4,29.74,West,270,5.0,8.0,78,0.00,,,0.49,meteohub,2013-05-24 18:42:00,
2013-05-24 14:47:00,73.9,66.6,29.74,WSW,248,4.0,9.0,78,0.00,,,0.49,meteohub,2013-05-24 18:47:00,
2013-05-24 14:52:00,74.3,66.9,29.74,SW,225,6.0,9.0,78,0.00,,,0.49,meteohub,2013-05-24 18:52:00,
2013-05-24 14:57:00,75.0,67.3,29.74,SW,225,7.0,8.0,77,0.00,,,0.49,meteohub,2013-05-24 18:57:00,
2013-05-24 15:02:00,75.0,66.9,29.74,SW,225,8.0,9.0,76,0.00,,,0.49,meteohub,2013-05-24 19:02:00,
2013-05-24 15:07:00,74.7,66.6,29.73,WSW,248,6.0,9.0,76,0.00,,,0.49,meteohub,2013-05-24 19:07:00,
2013-05-24 15:12:00,75.0,66.9,29.73,SSW,203,7.0,9.0,76,0.00,,,0.49,meteohub,2013-05-24 19:12:00,
2013-05-24 15:17:00,75.0,66.6,29.73,WSW,248,7.0,8.0,75,0.00,,,0.49,meteohub,2013-05-24 19:17:00,
2013-05-24 15:22:00,72.7,63.1,29.75,WNW,293,12.0,12.0,72,0.00,,,0.49,meteohub,2013-05-24 19:22:00,
2013-05-24 15:27:00,71.1,61.9,29.75,NW,315,8.0,14.0,73,0.00,,,0.49,meteohub,2013-05-24 19:27:00,
2013-05-24 15:32:00,70.0,62.1,29.75,NW,315,8.0,14.0,76,0.00,,,0.49,meteohub,2013-05-24 19:32:00,
2013-05-24 15:37:00,69.8,62.2,29.75,NW,315,6.0,14.0,77,0.00,,,0.49,meteohub,2013-05-24 19:37:00,
2013-05-24 15:42:00,70.0,62.8,29.75,NW,315,4.0,11.0,78,0.00,,,0.49,meteohub,2013-05-24 19:42:00,
2013-05-24 15:47:00,69.8,62.6,29.75,WNW,293,11.0,11.0,78,0.00,,,0.49,meteohub,2013-05-24 19:47:00,
2013-05-24 15:52:00,69.6,62.4,29.75,WNW,293,9.0,11.0,78,0.00,,,0.49,meteohub,2013-05-24 19:52:00,
2013-05-24 15:57:00,69.6,62.4,29.75,West,270,13.0,13.0,78,0.00,,,0.49,meteohub,2013-05-24 19:57:00,
2013-05-24 16:02:00,68.9,61.7,29.75,NNW,338,8.0,13.0,78,0.00,,,0.49,meteohub,2013-05-24 20:02:00,
2013-05-24 16:07:00,68.2,61.3,29.74,NNW,338,10.0,13.0,79,0.00,,,0.49,meteohub,2013-05-24 20:07:00,
2013-05-24 16:12:00,67.8,61.0,29.74,NNW,338,4.0,13.0,79,0.00,,,0.49,meteohub,2013-05-24 20:12:00,
2013-05-24 16:17:00,67.5,60.8,29.74,NE,45,4.0,11.0,79,0.00,,,0.49,meteohub,2013-05-24 20:17:00,
2013-05-24 16:22:00,67.1,60.8,29.73,NNW,338,2.0,10.0,80,0.00,,,0.49,meteohub,2013-05-24 20:22:00,
2013-05-24 16:27:00,67.6,61.2,29.73,NE,45,4.0,8.0,80,0.00,,,0.49,meteohub,2013-05-24 20:27:00,
2013-05-24 16:32:00,68.0,61.2,29.73,NNE,23,2.0,4.0,79,0.00,,,0.49,meteohub,2013-05-24 20:32:00,
2013-05-24 16:37:00,67.8,61.0,29.73,NNE,23,5.0,5.0,79,0.00,,,0.49,meteohub,2013-05-24 20:37:00,
2013-05-24 16:42:00,67.3,60.6,29.73,NNE,23,4.0,5.0,79,0.00,,,0.49,meteohub,2013-05-24 20:42:00,
2013-05-24 16:47:00,66.6,59.9,29.74,NNE,23,8.0,8.0,79,0.00,,,0.49,meteohub,2013-05-24 20:47:00,
2013-05-24 16:52:00,66.4,59.4,29.74,NNE,23,10.0,10.0,78,0.00,,,0.49,meteohub,2013-05-24 20:52:00,
2013-05-24 16:57:00,65.8,58.8,29.74,NNE,23,6.0,10.0,78,0.00,,,0.49,meteohub,2013-05-24 20:57:00,
2013-05-24 17:02:00,66.0,59.0,29.75,NNW,338,8.0,10.0,78,0.00,,,0.49,meteohub,2013-05-24 21:02:00,
2013-05-24 17:07:00,66.0,59.0,29.75,NNW,338,9.0,11.0,78,0.00,,,0.49,meteohub,2013-05-24 21:07:00,
2013-05-24 17:12:00,65.8,58.5,29.75,NNE,23,11.0,11.0,77,0.00,,,0.49,meteohub,2013-05-24 21:12:00,
2013-05-24 17:17:00,65.7,57.9,29.75,NNE,23,6.0,11.0,76,0.00,,,0.49,meteohub,2013-05-24 21:17:00,
2013-05-24 17:22:00,65.7,57.9,29.75,SW,225,2.0,11.0,76,0.00,,,0.49,meteohub,2013-05-24 21:22:00,
2013-05-24 17:27:00,66.0,59.0,29.75,ESE,113,2.0,11.0,78,0.00,,,0.49,meteohub,2013-05-24 21:27:00,
2013-05-24 17:32:00,66.0,59.0,29.75,NE,45,2.0,11.0,78,0.00,,,0.49,meteohub,2013-05-24 21:32:00,
2013-05-24 17:37:00,65.7,58.6,29.75,ENE,68,7.0,7.0,78,0.00,,,0.49,meteohub,2013-05-24 21:37:00,
2013-05-24 17:42:00,65.3,57.9,29.75,ENE,68,7.0,7.0,77,0.00,,,0.49,meteohub,2013-05-24 21:42:00,
2013-05-24 17:47:00,64.4,57.0,29.74,NW,315,4.0,8.0,77,0.00,,,0.49,meteohub,2013-05-24 21:47:00,
2013-05-24 17:52:00,64.2,57.2,29.74,NNE,23,3.0,8.0,78,0.00,,,0.49,meteohub,2013-05-24 21:52:00,
2013-05-24 17:57:00,63.9,57.2,29.74,NE,45,7.0,8.0,79,0.00,,,0.49,meteohub,2013-05-24 21:57:00,
2013-05-24 18:02:00,63.5,56.5,29.75,NNW,338,4.0,7.0,78,0.00,,,0.49,meteohub,2013-05-24 22:02:00,
2013-05-24 18:07:00,63.5,56.5,29.75,NNE,23,6.0,8.0,78,0.00,,,0.49,meteohub,2013-05-24 22:07:00,
2013-05-24 18:12:00,63.5,56.5,29.75,NNE,23,7.0,8.0,78,0.00,,,0.49,meteohub,2013-05-24 22:12:00,
2013-05-24 18:17:00,63.5,56.5,29.75,ENE,68,5.0,7.0,78,0.00,,,0.49,meteohub,2013-05-24 22:17:00,
2013-05-24 18:22:00,63.9,57.6,29.75,NNW,338,5.0,7.0,80,0.00,,,0.49,meteohub,2013-05-24 22:22:00,
2013-05-24 18:27:00,63.5,56.5,29.76,WNW,293,8.0,10.0,78,0.00,,,0.49,meteohub,2013-05-24 22:27:00,
2013-05-24 18:32:00,63.0,55.6,29.76,NE,45,13.0,13.0,77,0.00,,,0.49,meteohub,2013-05-24 22:32:00,
2013-05-24 18:37:00,62.2,55.2,29.76,NNE,23,6.0,13.0,78,0.00,,,0.49,meteohub,2013-05-24 22:37:00,
2013-05-24 18:42:00,61.9,54.7,29.77,NNE,23,11.0,13.0,77,0.00,,,0.49,meteohub,2013-05-24 22:42:00,
2013-05-24 18:47:00,61.5,54.3,29.77,NNW,338,8.0,13.0,77,0.00,,,0.49,meteohub,2013-05-24 22:47:00,
2013-05-24 18:52:00,61.3,54.5,29.77,NNW,338,12.0,14.0,78,0.00,,,0.49,meteohub,2013-05-24 22:52:00,
2013-05-24 18:57:00,61.0,53.8,29.77,NNE,23,12.0,14.0,77,0.00,,,0.49,meteohub,2013-05-24 22:57:00,
2013-05-24 19:02:00,60.4,53.6,29.77,NE,45,9.0,17.0,78,0.00,,,0.49,meteohub,2013-05-24 23:02:00,
2013-05-24 19:07:00,60.6,53.8,29.78,NE,45,10.0,17.0,78,0.00,,,0.49,meteohub,2013-05-24 23:07:00,
2013-05-24 19:12:00,60.4,53.6,29.78,NNW,338,12.0,15.0,78,0.00,,,0.49,meteohub,2013-05-24 23:12:00,
2013-05-24 19:17:00,60.3,53.8,29.78,SSW,203,6.0,12.0,79,0.00,,,0.49,meteohub,2013-05-24 23:17:00,
2013-05-24 19:22:00,60.1,53.6,29.78,NNE,23,11.0,12.0,79,0.00,,,0.49,meteohub,2013-05-24 23:22:00,
2013-05-24 19:27:00,60.1,53.6,29.78,NNE,23,13.0,13.0,79,0.00,,,0.49,meteohub,2013-05-24 23:27:00,
2013-05-24 19:32:00,59.9,53.4,29.78,NE,45,9.0,13.0,79,0.00,,,0.49,meteohub,2013-05-24 23:32:00,
2013-05-24 19:37:00,59.7,53.2,29.78,NNE,23,3.0,13.0,79,0.00,,,0.49,meteohub,2013-05-24 23:37:00,
2013-05-24 19:42:00,59.5,53.4,29.78,NE,45,8.0,13.0,80,0.00,,,0.49,meteohub,2013-05-24 23:42:00,
2013-05-24 19:47:00,59.4,53.2,29.78,NE,45,2.0,9.0,80,0.00,,,0.49,meteohub,2013-05-24 23:47:00,
2013-05-24 19:52:00,59.2,52.7,29.78,NNE,23,9.0,9.0,79,0.00,,,0.49,meteohub,2013-05-24 23:52:00,
2013-05-24 19:57:00,59.2,52.7,29.78,NE,45,7.0,9.0,79,0.00,,,0.49,meteohub,2013-05-24 23:57:00,
2013-05-24 20:02:00,59.4,53.2,29.78,NE,45,9.0,9.0,80,0.00,,,0.49,meteohub,2013-05-25 00:02:00,
2013-05-24 20:08:00,59.2,53.1,29.78,NNW,338,9.0,9.0,80,0.00,,,0.00,meteohub,2013-05-25 00:08:00,
2013-05-24 20:13:00,59.2,52.7,29.78,NW,315,6.0,9.0,79,0.00,,,0.00,meteohub,2013-05-25 00:13:00,
2013-05-24 20:18:00,58.8,52.3,29.78,NE,45,6.0,9.0,79,0.00,,,0.00,meteohub,2013-05-25 00:18:00,
2013-05-24 20:23:00,58.6,51.8,29.79,ENE,68,12.0,16.0,78,0.00,,,0.00,meteohub,2013-05-25 00:23:00,
2013-05-24 20:28:00,58.5,51.3,29.79,NE,45,14.0,16.0,77,0.00,,,0.00,meteohub,2013-05-25 00:28:00,
2013-05-24 20:33:00,58.3,51.1,29.79,NNE,23,7.0,16.0,77,0.00,,,0.00,meteohub,2013-05-25 00:33:00,
2013-05-24 20:39:00,58.1,51.3,29.79,SSE,158,3.0,14.0,78,0.00,,,0.00,meteohub,2013-05-25 00:39:00,
2013-05-24 20:44:00,58.1,51.3,29.80,ENE,68,8.0,14.0,78,0.00,,,0.00,meteohub,2013-05-25 00:44:00,
2013-05-24 20:49:00,58.1,50.9,29.80,NE,45,9.0,11.0,77,0.00,,,0.00,meteohub,2013-05-25 00:49:00,
2013-05-24 20:54:00,57.9,50.7,29.80,NW,315,14.0,14.0,77,0.00,,,0.00,meteohub,2013-05-25 00:54:00,
2013-05-24 21:00:00,57.7,50.5,29.80,NE,45,9.0,12.0,77,0.00,,,0.00,meteohub,2013-05-25 01:00:00,
2013-05-24 21:05:00,57.7,50.5,29.81,NNE,23,7.0,14.0,77,0.00,,,0.00,meteohub,2013-05-25 01:05:00,
2013-05-24 21:10:00,57.4,50.2,29.81,WNW,293,7.0,14.0,77,0.00,,,0.00,meteohub,2013-05-25 01:10:00,
2013-05-24 21:15:00,57.2,50.0,29.81,ENE,68,7.0,12.0,77,0.00,,,0.00,meteohub,2013-05-25 01:15:00,
2013-05-24 21:20:00,57.0,49.5,29.81,NNW,338,11.0,14.0,76,0.00,,,0.00,meteohub,2013-05-25 01:20:00,
2013-05-24 21:25:00,56.7,49.1,29.81,NE,45,14.0,14.0,76,0.00,,,0.00,meteohub,2013-05-25 01:25:00,
2013-05-24 21:30:00,56.3,48.9,29.81,ENE,68,18.0,20.0,76,0.00,,,0.00,meteohub,2013-05-25 01:30:00,
2013-05-24 21:35:00,56.3,48.9,29.81,NW,315,6.0,20.0,76,0.00,,,0.00,meteohub,2013-05-25 01:35:00,
2013-05-24 21:41:00,56.1,49.3,29.81,SW,225,2.0,20.0,78,0.00,,,0.00,meteohub,2013-05-25 01:41:00,
2013-05-24 21:46:00,56.3,49.1,29.82,NNW,338,14.0,18.0,77,0.00,,,0.00,meteohub,2013-05-25 01:46:00,
2013-05-24 21:51:00,55.9,48.9,29.82,NE,45,8.0,19.0,77,0.00,,,0.00,meteohub,2013-05-25 01:51:00,
2013-05-24 21:56:00,55.0,48.6,29.82,NW,315,8.0,19.0,79,0.00,,,0.00,meteohub,2013-05-25 01:56:00,
2013-05-24 22:01:00,54.9,48.6,29.82,NNE,23,14.0,19.0,79,0.00,,,0.00,meteohub,2013-05-25 02:01:00,
2013-05-24 22:06:00,54.3,48.2,29.83,NE,45,13.0,15.0,80,0.00,,,0.00,meteohub,2013-05-25 02:06:00,
2013-05-24 22:12:00,54.1,48.4,29.83,NNE,23,10.0,17.0,81,0.00,,,0.00,meteohub,2013-05-25 02:12:00,
2013-05-24 22:17:00,53.6,47.8,29.83,NE,45,10.0,17.0,81,0.00,,,0.00,meteohub,2013-05-25 02:17:00,
2013-05-24 22:22:00,53.6,47.8,29.83,NNE,23,8.0,21.0,81,0.00,,,0.00,meteohub,2013-05-25 02:22:00,
2013-05-24 22:27:00,53.6,47.8,29.84,NNE,23,13.0,21.0,81,0.00,,,0.00,meteohub,2013-05-25 02:27:00,
2013-05-24 22:32:00,53.2,47.8,29.84,ENE,68,16.0,21.0,82,0.00,,,0.00,meteohub,2013-05-25 02:32:00,
2013-05-24 22:37:00,53.1,48.0,29.84,NNE,23,12.0,16.0,83,0.00,,,0.00,meteohub,2013-05-25 02:37:00,
2013-05-24 22:42:00,52.5,47.8,29.84,North,0,12.0,17.0,84,0.00,,,0.00,meteohub,2013-05-25 02:42:00,
2013-05-24 22:47:00,52.2,47.5,29.85,NE,45,16.0,17.0,84,0.00,,,0.00,meteohub,2013-05-25 02:47:00,
2013-05-24 22:52:00,52.0,47.7,29.85,East,90,10.0,17.0,85,0.00,,,0.00,meteohub,2013-05-25 02:52:00,
2013-05-24 22:57:00,52.0,47.7,29.85,WNW,293,14.0,16.0,85,0.00,,,0.00,meteohub,2013-05-25 02:57:00,
2013-05-24 23:02:00,52.2,48.0,29.84,East,90,6.0,16.0,86,0.03,,,0.03,meteohub,2013-05-25 03:02:00,
2013-05-24 23:07:00,52.0,47.8,29.84,NW,315,9.0,14.0,86,0.03,,,0.03,meteohub,2013-05-25 03:07:00,
2013-05-24 23:12:00,52.0,47.8,29.84,NE,45,8.0,14.0,86,0.03,,,0.03,meteohub,2013-05-25 03:12:00,
2013-05-24 23:17:00,52.0,47.8,29.84,NNE,23,7.0,9.0,86,0.06,,,0.06,meteohub,2013-05-25 03:17:00,
2013-05-24 23:22:00,52.0,48.2,29.82,South,180,4.0,9.0,87,0.06,,,0.06,meteohub,2013-05-25 03:22:00,
2013-05-24 23:27:00,52.0,48.2,29.82,South,180,5.0,13.0,87,0.06,,,0.06,meteohub,2013-05-25 03:27:00,
2013-05-24 23:32:00,51.8,48.0,29.82,NE,45,16.0,16.0,87,0.06,,,0.06,meteohub,2013-05-25 03:32:00,
2013-05-24 23:37:00,51.6,48.2,29.82,NNE,23,10.0,16.0,88,0.06,,,0.06,meteohub,2013-05-25 03:37:00,
2013-05-24 23:42:00,51.4,47.7,29.82,ESE,113,5.0,16.0,87,0.06,,,0.06,meteohub,2013-05-25 03:42:00,
2013-05-24 23:47:00,51.3,47.5,29.80,NW,315,6.0,16.0,87,0.06,,,0.06,meteohub,2013-05-25 03:47:00,
2013-05-24 23:52:00,51.4,48.0,29.80,South,180,6.0,14.0,88,0.06,,,0.06,meteohub,2013-05-25 03:52:00,
2013-05-24 23:57:00,51.4,48.0,29.80,East,90,7.0,14.0,88,0.03,,,0.06,meteohub,2013-05-25 03:57:00,